Owosso, MI

6:36 AM EST on February 22, 2017 (GMT -0500)
Owosso

Weather History for KRNP - March, 2013

Change the Weather History Date:

Wednesday, March 27, 2013

  Actual Average (KFNT) Record (KFNT)
Temperature  
Mean Temperature 39 °F -  
Max Temperature 48 °F 47 °F 78 °F (1989)
Min Temperature 30 °F 29 °F -2 °F (1965)
Degree Days  
Heating Degree Days 26    
Moisture  
Dew Point 24 °F    
Average Humidity 58    
Maximum Humidity 81    
Minimum Humidity 36    
Precipitation  
Precipitation 0.00 in - - ()
Sea Level Pressure  
Sea Level Pressure 30.14 in    
Wind  
Wind Speed 10 mph (West)    
Max Wind Speed 21 mph    
Max Gust Speed 26 mph    
Visibility 10 miles    
Events      
Averages and records for this station are not official NWS values.
T = Trace of Precipitation, MM = Missing Value Source: NWS Daily Summary

Daily Weather History Graph

Daily Weather History Graph

Search for Another Location

Airport or City:

Trip Planner

Search our weather history database for the weather conditions in past years. The results will help you decide how hot, cold, wet, or windy it might be!

Date:

Astronomy

Mar. 27, 2013 Rise Set
Actual Time 7:26 AM EDT 7:57 PM EDT
Civil Twilight 6:58 AM EDT 8:25 PM EDT
Nautical Twilight 6:24 AM EDT 8:59 PM EDT
Astronomical Twilight 5:50 AM EDT 9:34 PM EDT
Moon 8:42 PM EDT (3/27) 7:16 AM EDT (3/27)
Length of Visible Light 13h 27m
Length of Day
12h 30m
Full, 100% of the Moon is Illuminated
Mar 27
Full
Apr 3
Last Quarter
Apr 10
New
Apr 18
First Quarter
Apr 25
Full

Hourly Weather History & Observations

Time (EDT) Temp. Windchill Dew Point Humidity Pressure Visibility Wind Dir Wind Speed Gust Speed Precip Events Conditions
12:15 AM 35.2 °F 30.3 °F 24.1 °F 64% 30.11 in 10.0 mi NW 5.8 mph - N/A   Overcast
12:34 AM 35.1 °F 28.6 °F 22.5 °F 60% 30.11 in 10.0 mi WNW 8.1 mph - N/A   Mostly Cloudy
12:55 AM 34.7 °F 28.1 °F 22.1 °F 60% 30.12 in 10.0 mi WNW 8.1 mph - N/A   Scattered Clouds
1:15 AM 34.2 °F 27.5 °F 22.6 °F 63% 30.12 in 10.0 mi WNW 8.1 mph - N/A   Scattered Clouds
1:34 AM 33.4 °F 27.3 °F 22.8 °F 65% 30.12 in 10.0 mi West 6.9 mph - N/A   Clear
1:55 AM 32.2 °F 26.7 °F 23.4 °F 70% 30.12 in 10.0 mi West 5.8 mph - N/A   Clear
2:15 AM 31.1 °F 25.4 °F 23.7 °F 74% 30.12 in 10.0 mi West 5.8 mph - N/A   Clear
2:34 AM 30.6 °F 23.8 °F 24.1 °F 77% 30.12 in 10.0 mi West 6.9 mph - N/A   Clear
2:55 AM 31.5 °F 24.2 °F 25.2 °F 78% 30.12 in 10.0 mi West 8.1 mph - N/A   Clear
3:15 AM 31.6 °F 23.7 °F 25.7 °F 79% 30.12 in 10.0 mi West 9.2 mph - N/A   Clear
3:34 AM 31.8 °F 23.9 °F 25.7 °F 78% 30.12 in 10.0 mi West 9.2 mph - N/A   Clear
3:55 AM 31.8 °F 23.9 °F 26.1 °F 79% 30.11 in 10.0 mi West 9.2 mph - N/A   Clear
4:15 AM 31.6 °F 23.7 °F 26.1 °F 80% 30.11 in 10.0 mi West 9.2 mph - N/A   Clear
4:35 AM 31.3 °F 22.7 °F 25.7 °F 80% 30.11 in 10.0 mi West 10.4 mph - N/A   Clear
4:55 AM 31.6 °F 23.7 °F 25.9 °F 79% 30.11 in 10.0 mi West 9.2 mph - N/A   Clear
5:14 AM 31.1 °F 23.7 °F 25.5 °F 80% 30.11 in 10.0 mi West 8.1 mph - N/A   Clear
5:35 AM 30.9 °F 23.5 °F 25.7 °F 81% 30.12 in 10.0 mi West 8.1 mph - N/A   Clear
5:55 AM 30.9 °F 22.8 °F 25.7 °F 81% 30.12 in 10.0 mi West 9.2 mph - N/A   Clear
6:14 AM 30.9 °F 22.2 °F 25.7 °F 81% 30.12 in 10.0 mi West 10.4 mph - N/A   Clear
6:35 AM 30.9 °F 24.3 °F 25.7 °F 81% 30.13 in 10.0 mi West 6.9 mph - N/A   Clear
6:55 AM 30.9 °F 22.8 °F 25.3 °F 80% 30.13 in 10.0 mi West 9.2 mph - N/A   Clear
7:14 AM 31.1 °F 23.1 °F 25.5 °F 80% 30.13 in 10.0 mi West 9.2 mph - N/A   Clear
7:35 AM 31.6 °F 22.6 °F 25.5 °F 78% 30.14 in 10.0 mi West 11.5 mph - N/A   Clear
7:55 AM 31.6 °F 22.6 °F 24.8 °F 76% 30.14 in 10.0 mi West 11.5 mph - N/A   Clear
8:14 AM 32.4 °F 24.0 °F 25.3 °F 75% 30.14 in 10.0 mi West 10.4 mph - N/A   Clear
8:35 AM 33.6 °F 25.0 °F 25.5 °F 72% 30.15 in 10.0 mi West 11.5 mph 17.3 mph N/A   Clear
8:54 AM 34.5 °F 25.7 °F 25.9 °F 71% 30.15 in 10.0 mi West 12.7 mph 17.3 mph N/A   Clear
9:15 AM 35.4 °F 27.8 °F 26.4 °F 70% 30.15 in 10.0 mi WNW 10.4 mph 16.1 mph N/A   Clear
9:35 AM 36.0 °F 26.7 °F 26.1 °F 67% 30.15 in 10.0 mi WNW 15.0 mph 21.9 mph N/A   Clear
9:54 AM 36.7 °F 28.4 °F 25.9 °F 65% 30.15 in 10.0 mi WNW 12.7 mph - N/A   Scattered Clouds
10:15 AM 37.6 °F 28.1 °F 26.4 °F 64% 30.15 in 10.0 mi West 17.3 mph 20.7 mph N/A   Scattered Clouds
10:34 AM 37.9 °F 29.2 °F 25.7 °F 61% 30.15 in 10.0 mi West 15.0 mph 18.4 mph N/A   Mostly Cloudy
10:55 AM 40.1 °F 32.0 °F 26.8 °F 59% 30.15 in 10.0 mi West 15.0 mph 19.6 mph N/A   Overcast
11:15 AM 40.5 °F 32.8 °F 26.1 °F 57% 30.16 in 10.0 mi West 13.8 mph 18.4 mph N/A   Overcast
11:34 AM 40.6 °F 32.0 °F 25.3 °F 54% 30.16 in 10.0 mi West 17.3 mph 23.0 mph N/A   Overcast
11:55 AM 41.4 °F 32.7 °F 25.2 °F 53% 30.16 in 10.0 mi West 18.4 mph - N/A   Overcast
12:15 PM 41.9 °F 34.0 °F 24.6 °F 50% 30.16 in 10.0 mi WNW 16.1 mph 24.2 mph N/A   Overcast
12:34 PM 43.2 °F 35.6 °F 24.8 °F 48% 30.16 in 10.0 mi WNW 16.1 mph 23.0 mph N/A   Mostly Cloudy
12:55 PM 45.0 °F 37.9 °F 25.9 °F 47% 30.15 in 10.0 mi West 16.1 mph 20.7 mph N/A   Scattered Clouds
1:15 PM 45.0 °F 38.5 °F 23.9 °F 44% 30.15 in 10.0 mi West 13.8 mph 21.9 mph N/A   Clear
1:34 PM 45.7 °F 38.8 °F 24.4 °F 43% 30.15 in 10.0 mi West 16.1 mph 21.9 mph N/A   Clear
1:55 PM 45.7 °F 38.8 °F 23.2 °F 41% 30.15 in 10.0 mi WNW 16.1 mph 25.3 mph N/A   Scattered Clouds
2:15 PM 46.0 °F 39.9 °F 22.8 °F 40% 30.14 in 10.0 mi WNW 13.8 mph 26.5 mph N/A   Scattered Clouds
2:34 PM 46.4 °F 39.5 °F 23.7 °F 41% 30.14 in 10.0 mi West 17.3 mph 23.0 mph N/A   Mostly Cloudy
2:55 PM 46.6 °F - 23.2 °F 40% 30.14 in 10.0 mi WNW 16.1 mph 25.3 mph N/A   Overcast
3:14 PM 47.8 °F - 23.4 °F 38% 30.14 in 10.0 mi West 16.1 mph 24.2 mph N/A   Mostly Cloudy
3:35 PM 48.0 °F - 22.5 °F 37% 30.13 in 10.0 mi West 20.7 mph 25.3 mph N/A   Mostly Cloudy
3:55 PM 47.7 °F - 21.6 °F 36% 30.13 in 10.0 mi West 15.0 mph 24.2 mph N/A   Mostly Cloudy
4:14 PM 47.5 °F - 22.5 °F 37% 30.13 in 10.0 mi West 17.3 mph 23.0 mph N/A   Overcast
4:35 PM 47.1 °F - 21.0 °F 36% 30.13 in 10.0 mi WNW 16.1 mph 25.3 mph N/A   Overcast
4:55 PM 45.7 °F 39.1 °F 21.0 °F 38% 30.13 in 10.0 mi WNW 15.0 mph 24.2 mph N/A   Overcast
5:14 PM 45.7 °F 39.8 °F 21.4 °F 38% 30.13 in 10.0 mi West 12.7 mph 18.4 mph N/A   Overcast
5:35 PM 46.4 °F 41.1 °F 21.9 °F 38% 30.13 in 10.0 mi West 11.5 mph 23.0 mph N/A   Overcast
5:55 PM 45.7 °F 38.3 °F 21.7 °F 39% 30.13 in 10.0 mi WNW 18.4 mph 24.2 mph N/A   Overcast
6:14 PM 45.5 °F 38.9 °F 21.2 °F 38% 30.14 in 10.0 mi West 15.0 mph 21.9 mph N/A   Overcast
6:35 PM 45.1 °F 39.1 °F 21.9 °F 40% 30.14 in 10.0 mi West 12.7 mph 18.4 mph N/A   Overcast
6:55 PM 44.6 °F 37.4 °F 21.6 °F 40% 30.14 in 10.0 mi West 16.1 mph 20.7 mph N/A   Overcast
7:14 PM 44.8 °F 37.7 °F 21.9 °F 40% 30.14 in 10.0 mi West 16.1 mph - N/A   Overcast
7:35 PM 44.4 °F 38.2 °F 21.0 °F 39% 30.14 in 10.0 mi West 12.7 mph 21.9 mph N/A   Overcast
7:54 PM 43.2 °F 36.6 °F 21.0 °F 41% 30.15 in 10.0 mi West 12.7 mph - N/A   Mostly Cloudy
8:15 PM 41.4 °F 34.3 °F 21.0 °F 44% 30.15 in 10.0 mi West 12.7 mph - N/A   Scattered Clouds
8:35 PM 41.0 °F 34.3 °F 20.3 °F 44% 30.16 in 10.0 mi WNW 11.5 mph - N/A   Scattered Clouds
8:54 PM 40.5 °F 33.2 °F 20.3 °F 45% 30.16 in 10.0 mi WNW 12.7 mph - N/A   Mostly Cloudy
9:15 PM 40.5 °F 32.8 °F 21.0 °F 46% 30.17 in 10.0 mi WNW 13.8 mph - N/A   Overcast
9:35 PM 40.3 °F 33.4 °F 21.7 °F 48% 30.18 in 10.0 mi WNW 11.5 mph - N/A   Overcast
9:54 PM 39.7 °F 33.2 °F 22.1 °F 49% 30.18 in 10.0 mi WNW 10.4 mph - N/A   Overcast
10:15 PM 39.2 °F 33.6 °F 22.3 °F 51% 30.19 in 10.0 mi West 8.1 mph - N/A   Overcast
10:35 PM 37.2 °F 31.2 °F 22.5 °F 55% 30.19 in 10.0 mi West 8.1 mph - N/A   Scattered Clouds
10:54 PM 36.1 °F 29.9 °F 22.6 °F 58% 30.20 in 10.0 mi West 8.1 mph - N/A   Clear
11:15 PM 34.7 °F 29.6 °F 23.0 °F 62% 30.20 in 10.0 mi West 5.8 mph - N/A   Clear
11:34 PM 34.0 °F 28.0 °F 23.5 °F 66% 30.20 in 10.0 mi West 6.9 mph - N/A   Clear
11:55 PM 34.0 °F 26.6 °F 23.5 °F 66% 30.21 in 10.0 mi West 9.2 mph - N/A   Clear